Weather observations for the past three days for
Gulkana, Gulkana Airport
Metric (Imperial)
Date Time (akdt) Wind (kph) Vis. (km) Weather Sky Cond. Temperature (ºC) Relative Humidity Wind Chill (°C) Heat Index (°C) Pressure Precipitation (cm)
Air Dwpt 6 hour altimeter (cm) sea level (mb) 1 hr 3 hr 6 hr
Max. Min.
16 04:53 Calm 16.09 Fair CLR 6.1 2.8 80% 76.53 1020.3
16 03:53 Calm 16.09 Fair CLR 7.2 3.3 18.9 6.7 77% 76.5 1019.9
16 02:53 Calm 16.09 Fair CLR 8.3 3.3 71% 76.48 1019.7
16 01:53 S 9 16.09 Fair CLR 10.6 3.9 64% 76.45 1019.1
16 00:53 S 11 16.09 Fair CLR 12.2 4.4 59% 76.4 1018.4
15 23:53 S 13 16.09 Fair CLR 12.8 4.4 57% 76.38 1017.9
15 22:53 SW 9 16.09 Fair CLR 17.2 4.4 43% 76.35 1017.1
15 21:53 SW 11 16.09 Fair CLR 18.9 4.4 25 18.9 39% 76.33 1016.9 0.03
15 20:53 SW 9 16.09 A Few Clouds FEW100 20.6 4.4 35% 76.28 1016.4
15 19:53 SW 6 16.09 Fair CLR 22.2 3.3 29% 76.28 1016.1
15 18:54 Calm 16.09 NULL NULL 21.7 3.3 30% 76.28 1016.4 0.03
15 17:53 S 11 16.09 Overcast FEW070 BKN100 OVC110 19.4 5 39% 76.28 1017.0 0.03
15 16:53 N 9 16.09 Fair CLR 24.4 2.2 23% 25 76.25 1016.0
15 15:53 NW 13 16.09 A Few Clouds FEW100 24.4 2.2 25 17.2 23% 25 76.23 1015.6
15 14:53 NE 17 16.09 Mostly Cloudy BKN100 BKN120 21.1 2.8 30% 76.28 1016.5
15 13:53 SW 9 16.09 Mostly Cloudy BKN090 21.1 5.6 37% 76.28 1016.5
15 12:53 N 15 G 37 16.09 Light Rain FEW037 BKN100 BKN110 19.4 3.3 35% 76.3 1016.9
15 11:53 N 19 G 35 16.09 Fair CLR 21.1 5 35% 76.33 1016.8
15 10:53 Vrbl 6 16.09 Fair CLR 19.4 6.1 42% 76.35 1017.4
15 09:53 Vrbl 7 16.09 Fair CLR 16.7 5.6 17.2 10 48% 76.4 1018.1
15 07:53 E 6 16.09 Fair CLR 13.9 5 55% 76.43 1018.4
15 06:53 N 7 16.09 Fair CLR 13.3 5 57% 76.43 1018.8
15 05:53 N 7 16.09 Fair CLR 10 5 71% 9 76.43 1018.6
15 04:53 N 9 16.09 Fair CLR 10 3.9 66% 9 76.4 1018.1
15 03:53 N 13 16.09 Fair CLR 11.7 4.4 18.3 11.1 61% 76.35 1017.6
15 02:53 N 19 16.09 Fair CLR 11.7 4.4 61% 76.33 1017.1
15 01:53 NW 11 16.09 Fair CLR 11.7 5 64% 76.33 1017.3
15 00:53 NW 13 16.09 Fair CLR 13.3 5 57% 76.3 1016.8
14 23:53 N 17 16.09 Fair CLR 16.1 5 48% 76.28 1016.4
14 22:53 N 13 16.09 Fair CLR 16.7 5 46% 76.25 1016.3
14 21:53 N 13 16.09 Fair CLR 18.3 5 23.9 18.3 42% 76.23 1016.0
14 20:53 N 11 G 31 16.09 Partly Cloudy SCT120 19.4 4.4 37% 76.2 1015.7
14 19:53 N 15 16.09 A Few Clouds FEW095 20 3.9 35% 76.17 1015.4
14 18:53 NW 9 G 44 16.09 Light Rain FEW085 SCT120 18.9 6.1 43% 76.15 1015.5
14 17:53 N 20 G 35 16.09 A Few Clouds FEW075 22.8 5 32% 76.17 1015.3
14 16:53 N 28 G 43 16.09 Fair CLR 22.8 3.3 28% 76.17 1015.4
14 15:53 N 20 G 39 16.09 Fair CLR 22.8 3.3 23.3 13.3 28% 76.2 1015.7
14 14:53 N 19 G 43 16.09 Fair CLR 22.2 5 33% 76.23 1015.9
14 13:53 N 24 G 35 16.09 A Few Clouds FEW070 21.7 5 34% 76.23 1016.2
14 12:53 N 11 16.09 Fair CLR 20 7.2 44% 76.28 1016.8
14 11:53 Calm 16.09 Fair CLR 17.2 8.3 56% 76.35 1018.0
14 10:53 SE 9 16.09 Fair CLR 15 8.9 67% 76.4 1018.9
14 09:53 Calm 16.09 Fair CLR 13.9 7.8 13.9 7.2 67% 76.43 1019.4
14 08:53 Calm 16.09 Overcast OVC028 11.7 7.8 77% 76.45 1020.0
14 06:53 N 6 16.09 Mostly Cloudy FEW004 BKN027 8.9 7.2 89% 76.5 1020.6
14 05:53 Calm 16.09 Overcast OVC027 8.3 6.7 90% 76.5 1020.8
14 04:53 Calm 16.09 Overcast OVC028 7.8 6.1 89% 76.48 1020.6
14 03:53 Calm 16.09 Overcast OVC029 7.8 6.7 11.7 7.2 93% 76.48 1020.7
14 02:53 SE 6 16.09 Overcast OVC030 8.3 7.2 93% 76.48 1020.7
14 01:53 SE 7 16.09 Overcast OVC039 8.3 7.2 93% 7 76.48 1020.6
14 00:53 Calm 16.09 Mostly Cloudy BKN034 BKN044 9.4 7.8 90% 76.45 1020.5
13 23:53 Calm 16.09 Overcast OVC032 10 8.3 89% 76.48 1020.6
13 22:53 Calm 16.09 Overcast OVC033 10 7.8 86% 76.48 1020.7
13 21:53 W 6 16.09 Overcast FEW065 BKN080 OVC095 11.7 7.8 13.3 8.9 77% 76.48 1020.6
13 20:53 W 6 16.09 Overcast OVC032 11.7 7.8 77% 76.5 1020.8
13 19:53 Calm 16.09 Overcast OVC030 11.7 7.8 77% 76.5 1021.1
13 18:53 W 7 16.09 Mostly Cloudy FEW019 SCT023 BKN034 12.2 7.2 72% 76.53 1021.2
13 17:53 SW 7 16.09 Overcast FEW010 OVC029 10.6 7.2 80% 76.56 1021.9
13 16:53 S 9 12.87 Overcast SCT007 BKN013 OVC018 9.4 7.8 90% 8 76.61 1022.4
13 15:53 SW 7 16.09 Overcast OVC011 9.4 7.2 9.4 6.7 86% 9 76.61 1022.6
13 14:53 W 6 16.09 Overcast SCT010 OVC023 9.4 7.2 86% 76.63 1022.7
13 13:53 S 9 16.09 Overcast SCT006 BKN016 OVC022 8.3 6.7 90% 7 76.63 1023.0
13 12:53 SW 9 16.09 Overcast SCT009 OVC014 8.3 6.7 90% 7 76.63 1023.0
13 11:53 SW 9 16.09 Overcast BKN009 BKN014 OVC020 7.8 6.7 93% 6 76.66 1023.2
13 09:53 S 11 16.09 Overcast SCT004 BKN010 OVC018 6.7 6.1 6.7 5.6 96% 5 76.68 1023.5 0.05 0.33
13 08:53 SE 11 16.09 Light Rain BKN004 OVC013 6.1 5.6 97% 4 76.68 1023.7 0.08
13 07:53 S 11 16.09 Light Rain SCT003 SCT007 OVC029 5.6 5 96% 3 76.68 1023.6 0.05
13 06:53 SE 11 16.09 Light Rain BKN003 OVC029 5.6 5 96% 3 76.68 1023.6 0.1 0.15
13 05:53 S 13 14.48 Light Rain BKN003 BKN013 OVC030 5.6 5.6 100% 3 76.66 1023.6
Date Time (akdt) Wind (kph) Vis. (km) Weather Sky Cond. Air Dwpt Max. Min. Relative Humidity Wind Chill (°C) Heat Index (°C) altimeter (cm) sea level (mb) 1 hr 3 hr 6 hr
6 hour
Temperature (ºC) Pressure Precipitation (cm)